This demonstration page uses our WeatherBlox Daily Observations layout. Learn more.

Left ArrowRight Arrow

Hourly Observations for January 1, 2019

Temp ( °F °C ) Dew Point ( °F °C ) Humidity (%) Winds ( mph kmh ) Pressure ( in mb ) Visibility ( mi km ) Precip ( " mm )
12:06 am 00:06 Cloudy with Light Rain 36 2 36 2 100 100 WNW 14 22 29.94 1014 8 13 N/A
12:51 am 00:51 Cloudy with Light Rain 36 2.2 35 1.7 97 97 WNW 14 22 29.84 1010 10 16 0.02 0.51
1:46 am 01:46 Cloudy with Light Rain 36 2 36 2 100 100 WNW 13 20 29.97 1015 9 14 N/A
1:51 am 01:51 Cloudy with Light Rain 35 1.7 35 1.7 100 100 WNW 16 26 29.86 1011 9 14 0.01 0.25
2:02 am 02:02 Cloudy with Light Rain 36 2 36 2 100 100 WNW 14 22 29.97 1015 10 16 N/A
2:16 am 02:16 Cloudy with Light Rain 36 2 36 2 100 100 NW 10 17 29.97 1015 10 16 N/A
2:51 am 02:51 Cloudy with Light Wintry Mix 34 1.1 34 1.1 100 100 WNW 12 19 29.87 1012 10 16 0.02 0.51
2:58 am 02:58 Cloudy with Light Wintry Mix 34 1 34 1 100 100 WNW 13 20 30.00 1016 10 16 N/A
3:12 am 03:12 Cloudy with Light Snow 34 1 34 1 100 100 WNW 10 17 30.03 1017 8 13 N/A
3:46 am 03:46 Cloudy with Light Snow 34 1 34 1 100 100 WNW 12 19 30.03 1017 3 4 N/A
3:51 am 03:51 Cloudy with Light Snow 33 0.6 33 0.6 100 100 NW 9 15 29.87 1011 3 5 0.02 0.51
4:08 am 04:08 Cloudy 34 1 34 1 100 100 NW 12 19 30.03 1017 8 13 N/A
4:51 am 04:51 Cloudy with Light Snow 33 0.6 33 0.6 100 100 NW 14 22 29.89 1012 4 6 0.01 0.25
5:00 am 05:00 Cloudy with Light Snow 34 1 34 1 100 100 NW 14 22 30.03 1017 3 5 N/A
5:09 am 05:09 Cloudy with Light Snow 33 0.6 33 0.6 100 100 NW 13 20 30.03 1017 3 4 N/A
5:20 am 05:20 Cloudy with Light Snow 34 1 34 1 100 100 NW 13 20 30.03 1017 3 5 N/A
5:51 am 05:51 Cloudy with Light Snow 33 0.6 33 0.6 100 100 NW 12 19 29.93 1013 4 6 0.01 0.25
6:51 am 06:51 Cloudy with Light Snow 33 0.6 32 undefined 96 96 WNW 9 15 29.95 1014 4 6 0.01 0.25
7:51 am 07:51 Cloudy with Light Snow 33 0.6 32 undefined 96 96 NW 3 6 29.97 1015 3 4 N/A
8:00 am 08:00 Cloudy with Light Snow 34 1 34 1 100 100 WNW 3 6 30.09 1019 5 8 N/A
8:51 am 08:51 Cloudy 33 0.6 33 0.6 100 100 WNW 3 6 30.00 1016 10 16 N/A
9:32 am 09:32 Cloudy 35 1.7 33 0.6 93 93 N N/A 30.12 1020 10 16 N/A
9:42 am 09:42 Cloudy 36 2 34 1 93 93 N N/A 30.12 1020 10 16 N/A
9:51 am 09:51 Cloudy 35 1.7 34 1.1 96 96 N N/A 30.03 1017 10 16 N/A
10:15 am 10:15 Cloudy 36 2.2 34 1.1 93 93 S 3 6 30.12 1020 10 16 N/A
10:24 am 10:24 Cloudy 36 2 36 2 100 100 WSW 3 6 30.12 1020 10 16 N/A
10:51 am 10:51 Cloudy 37 2.8 35 1.7 93 93 WSW 6 9 30.02 1017 10 16 N/A
11:51 am 11:51 Cloudy 39 3.9 32 undefined 76 76 W 7 11 30.01 1016 10 16 N/A
12:46 pm 12:46 Cloudy 43 6 36 2 76 76 W 9 15 30.00 1016 10 16 N/A
12:51 pm 12:51 Cloudy 40 4.4 33 0.6 77 77 W 10 17 29.97 1015 10 16 N/A
1:51 pm 13:51 Cloudy 42 5.6 33 0.6 71 71 W 10 17 29.96 1015 10 16 N/A
2:29 pm 14:29 Cloudy 42 5.6 32 undefined 68 68 W 10 17 30.00 1016 10 16 N/A
2:41 pm 14:41 Cloudy 42 5.6 32 undefined 68 68 W 12 19 30.00 1016 10 16 N/A
2:51 pm 14:51 Cloudy 42 5.6 32 undefined 68 68 W 12 19 29.96 1015 10 16 N/A
3:51 pm 15:51 Cloudy 41 5 32 undefined 70 70 W 9 15 29.98 1015 10 16 N/A
4:51 pm 16:51 Partly Cloudy 40 4.4 30 -1.1 68 68 W 8 13 29.98 1015 10 16 N/A
5:51 pm 17:51 Mostly Cloudy 38 3.3 31 -0.6 76 76 WNW 7 11 30.00 1016 10 16 N/A
6:51 pm 18:51 Cloudy 38 3.3 33 0.6 83 83 E 3 6 30.01 1016 10 16 N/A
7:51 pm 19:51 Cloudy 38 3.3 29 -1.7 70 70 W 6 9 30.01 1016 10 16 N/A
8:51 pm 20:51 Cloudy 37 2.8 29 -1.7 73 73 WNW 7 11 30.01 1016 10 16 N/A
9:51 pm 21:51 Cloudy 36 2.2 29 -1.7 76 76 NW 9 15 30.00 1016 10 16 N/A
10:51 pm 22:51 Cloudy 34 1.1 27 -2.8 76 76 NW 9 15 29.99 1016 10 16 N/A
11:51 pm 23:51 Cloudy 34 1.1 25 -3.9 70 70 W 9 15 29.99 1016 10 16 N/A

Powered by AerisWeather